Wind_Speed
7 4 2 2 1 1 2 2 2 3 4 4 5 6 7 8 9 11 14 17 18 20 20 21 22 23 24 25 23 24 32 38 33 31 29 23 22 18 16 26 19 14 16 13 9
8 6 3 2 1 1 1 2 3 3 3 4 4 5 5 6 7 7 9 12 14 16 17 19 19 21 23 21 25 29 34 36 30 28 28 29 26 23 20 20 31 22 14 16 11
8 6 4 2 2 3 2 2 3 3 4 4 4 5 5 5 6 11 9 9 10 11 13 16 18 16 18 20 23 30 38 30 29 28 30 31 32 26 24 24 24 36 20 15 15
7 6 5 4 2 1 3 4 5 6 6 6 5 5 4 1 2 14 8 8 9 8 8 10 12 14 17 21 24 30 33 31 30 32 31 31 30 32 31 28 24 27 44 26 18
5 4 4 4 3 1 2 4 6 8 8 9 9 8 6 4 5 9 10 10 8 7 4 3 4 10 17 18 22 28 26 30 28 30 31 30 32 33 33 32 25 29 34 45 33
5 5 4 4 4 3 2 4 5 7 9 10 10 9 7 3 22 15 12 10 7 4 7 4 5 9 12 15 22 20 22 27 29 30 27 30 35 32 37 32 32 30 31 31 45
3 4 3 2 3 4 4 4 4 5 6 8 8 9 9 10 17 15 11 8 8 7 4 7 7 7 8 10 15 19 24 24 25 27 29 26 34 38 34 32 36 34 27 29 33
4 4 4 4 4 4 5 5 5 5 6 7 7 7 7 12 13 12 8 7 8 7 8 10 8 10 12 12 16 17 19 25 24 25 26 24 38 31 29 31 36 34 29 26 30
6 5 5 5 5 6 7 6 7 7 6 5 5 3 2 12 10 7 8 4 9 7 9 10 9 11 11 13 16 18 23 21 21 16 19 22 32 26 27 23 26 28 29 30 31
8 6 4 5 6 6 7 7 8 8 6 4 2 2 8 5 7 8 8 9 8 8 9 10 9 12 13 15 21 15 18 16 17 13 16 19 26 22 19 22 24 24 23 24 27
9 6 5 5 5 6 7 7 9 12 5 6 5 6 6 9 11 8 8 8 8 9 10 12 12 17 14 16 18 19 18 18 18 15 19 22 25 24 25 29 26 25 23 24 26
10 8 6 5 6 6 7 6 5 6 5 9 8 11 11 9 6 9 11 11 10 10 10 12 18 16 16 17 16 17 19 22 21 20 21 23 27 26 28 31 31 29 27 26 25
11 9 6 6 5 6 7 7 5 3 4 8 6 8 7 9 7 7 13 12 12 14 14 18 17 11 15 17 16 17 19 20 21 19 22 25 34 29 28 32 30 31 27 27 28
11 10 8 6 6 6 7 7 4 4 5 11 6 6 10 8 11 11 11 11 13 15 14 19 15 15 13 17 16 20 17 19 19 20 23 19 24 24 21 17 18 20 21 23 25
10 9 9 7 7 5 8 6 4 2 6 5 8 10 7 12 5 11 10 12 18 17 18 18 17 16 17 17 17 22 18 17 19 23 25 28 24 29 23 26 21 21 21 16 15
10 9 8 9 8 7 7 4 2 3 7 5 7 5 10 12 13 12 12 14 16 20 23 28 23 21 22 21 20 19 18 19 22 25 23 30 28 32 24 19 16 15 14 16 16
11 10 9 8 6 10 6 1 6 10 3 6 6 10 12 14 17 17 19 19 22 22 25 22 26 28 28 26 22 19 20 20 21 21 18 25 10 18 8 5 8 17 15 12 15
14 11 9 9 9 8 4 3 13 7 8 8 11 13 18 16 19 19 20 24 20 22 27 28 27 21 24 25 23 23 23 21 18 16 19 10 10 16 17 17 17 14 16 16 13
15 13 10 6 7 6 4 11 14 12 9 10 14 19 18 14 14 12 16 22 22 22 24 24 27 17 14 17 18 23 28 28 24 28 26 35 38 40 16 21 17 15 13 13 13
15 15 8 8 9 7 6 15 14 13 13 13 15 12 16 14 14 16 16 14 15 13 18 23 27 24 23 21 23 26 28 26 15 13 21 25 31 29 27 21 19 17 14 13 14
14 10 10 11 10 6 10 11 13 15 14 12 14 18 19 21 20 23 24 20 19 17 16 19 24 29 26 27 29 26 27 32 30 30 15 17 18 10 10 12 14 14 14 15 16
11 3 12 11 8 6 7 12 19 17 15 19 20 19 20 21 23 26 27 25 20 16 19 19 20 25 28 26 26 26 29 26 22 14 26 29 31 16 12 11 14 12 12 16 20
11 7 9 8 3 8 12 17 17 17 14 13 14 14 15 19 20 17 18 16 20 20 18 17 15 25 27 27 23 19 19 24 29 31 34 22 35 29 16 17 13 12 16 18 20
14 8 12 12 10 12 14 15 13 15 16 14 17 16 19 22 21 26 23 19 18 18 21 19 25 29 28 31 24 14 17 22 24 23 31 35 36 31 26 20 23 20 22 21 20
14 9 13 8 11 16 17 18 17 15 14 14 15 13 16 19 17 21 23 24 22 21 21 18 28 29 32 31 31 34 34 32 31 30 31 34 31 31 32 29 26 27 27 25 23
14 14 15 15 16 17 16 13 16 18 18 20 20 19 18 22 23 28 25 24 26 25 26 24 29 27 33 29 29 32 32 31 33 34 36 38 41 33 35 32 30 31 29 25 22
15 16 17 18 13 14 15 17 19 21 17 14 15 17 20 21 22 24 25 26 23 21 19 18 20 19 25 21 23 21 28 28 28 28 30 34 36 30 29 28 29 25 19 18 22
Wind_Direction
357 347 1 17 351 299 280 270 263 257 260 264 263 263 265 266 265 263 257 259 254 253 249 242 239 239 238 238 231 233 241 245 246 248 251 250 251 249 241 229 242 229 241 257 284
12 5 339 321 319 322 313 303 293 288 288 290 291 289 288 287 284 281 264 260 259 255 250 246 241 236 232 238 231 228 237 243 247 251 254 252 250 249 239 231 229 241 245 262 275
13 18 25 354 297 281 272 275 280 287 291 293 295 293 292 300 312 238 277 276 270 261 252 246 238 230 236 233 233 232 241 247 251 253 254 254 249 247 245 247 236 231 223 257 276
10 19 33 44 30 284 261 256 255 263 274 281 284 286 289 274 77 267 273 273 272 268 255 255 247 238 239 238 239 239 244 249 254 252 252 253 250 246 247 251 248 238 230 252 273
350 11 20 38 39 354 274 256 248 248 255 262 266 271 274 265 262 264 268 268 266 261 237 260 243 246 243 246 241 244 251 250 254 256 249 251 246 249 248 248 251 244 244 239 254
335 341 358 5 5 3 321 259 249 247 249 252 256 256 253 187 237 274 273 271 264 260 252 233 245 243 248 241 243 249 254 256 254 252 255 248 248 252 247 247 247 256 249 240 244
319 320 325 337 352 357 352 332 308 282 266 261 259 254 244 217 245 260 266 270 259 245 237 269 245 251 262 266 260 252 254 261 255 246 249 251 253 248 254 249 249 252 255 247 233
330 303 305 304 314 327 329 322 310 290 276 262 253 249 202 235 246 255 251 258 254 264 248 240 260 256 253 252 263 261 260 259 262 256 252 244 256 257 258 251 245 242 250 238 242
347 327 302 296 291 305 319 321 322 311 293 285 263 234 288 267 241 239 229 213 254 260 261 260 262 255 254 263 263 249 254 258 260 235 236 244 258 256 250 243 241 243 243 239 235
355 342 334 309 300 305 319 321 323 318 306 308 284 148 270 251 211 220 224 231 240 253 265 267 259 253 257 243 252 277 253 248 258 237 247 250 254 259 250 237 247 250 252 246 234
354 348 340 327 308 311 316 317 338 332 304 196 251 228 219 224 231 234 234 246 241 249 253 260 250 247 254 253 261 272 268 268 263 255 256 261 261 256 250 250 253 255 255 248 237
1 347 337 328 317 316 318 325 302 263 307 274 240 227 231 220 226 246 227 226 244 256 256 258 254 260 254 252 257 261 264 265 265 260 260 266 267 262 255 252 252 252 250 250 240
1 350 335 325 318 314 324 320 313 303 297 262 239 228 233 224 229 245 225 230 239 260 258 262 259 274 250 250 256 258 262 269 269 270 265 273 273 269 270 256 255 250 250 243 246
350 350 337 328 328 326 314 319 304 296 298 220 238 237 215 213 259 233 230 225 251 258 265 262 274 255 249 245 249 267 268 273 263 268 267 269 288 273 267 249 256 235 232 229 227
344 342 334 325 314 311 297 308 295 276 279 186 209 220 204 213 259 271 226 242 250 257 261 262 259 252 250 253 260 271 273 268 265 269 277 270 266 273 264 254 249 237 224 218 216
340 331 331 319 310 301 301 299 239 256 252 229 213 252 228 253 254 245 263 260 254 261 260 261 257 256 256 260 267 268 269 264 267 262 257 263 256 268 264 227 214 205 202 207 218
343 330 321 317 279 300 297 218 275 248 266 240 258 246 255 257 258 260 260 260 258 263 259 265 256 256 251 256 257 253 260 267 260 245 246 263 243 254 293 211 210 207 218 229 231
338 332 320 312 306 295 274 224 256 278 272 279 279 271 264 270 269 262 261 262 265 263 269 277 278 271 250 239 259 257 250 266 282 285 294 303 247 260 243 240 215 221 234 235 234
336 331 323 328 310 299 250 241 253 293 285 284 288 282 278 264 255 263 263 273 269 262 262 265 269 273 253 249 245 264 263 265 280 269 272 274 277 272 235 216 215 237 230 221 232
333 329 329 329 311 296 255 253 273 288 284 285 280 280 279 278 268 267 273 279 275 275 258 267 281 266 270 266 252 252 259 271 258 262 264 261 260 271 225 208 213 210 221 239 251
332 335 324 315 314 292 256 272 275 279 278 273 275 274 274 280 279 276 275 271 275 277 271 271 270 274 270 257 256 256 254 250 257 252 254 274 281 54 145 183 216 216 229 251 274
340 356 317 311 312 270 280 282 283 292 277 274 276 279 278 280 278 276 273 270 274 277 268 266 281 273 273 271 267 257 257 243 246 264 263 270 268 250 190 212 230 228 243 266 275
340 308 314 294 293 265 285 298 290 281 283 278 266 273 276 277 284 278 277 277 269 266 273 279 266 279 280 272 256 268 269 268 263 258 254 260 263 252 246 215 247 245 266 274 280
333 332 312 307 287 297 310 320 299 292 290 277 269 274 277 277 273 273 278 278 276 265 262 272 267 270 274 280 288 273 274 255 291 265 263 259 265 264 230 280 261 265 275 281 282
323 303 312 292 277 285 303 301 303 305 291 289 290 282 281 286 283 280 281 282 273 271 270 270 270 271 274 275 276 275 274 269 259 265 263 270 271 264 269 276 278 279 277 275 274
310 310 301 307 310 299 302 293 299 303 296 288 275 281 278 278 280 286 283 278 276 273 271 266 272 275 275 274 275 273 269 272 270 270 268 265 261 266 270 274 276 277 268 255 269
296 300 297 312 304 298 301 288 291 302 299 294 288 284 285 286 280 275 272 271 267 262 265 263 265 274 280 282 284 276 265 264 267 264 263 258 264 267 267 271 272 268 269 263 267
Height
3110 3109 3108 3107 3107 3107 3107 3107 3108 3108 3108 3109 3109 3109 3109 3110 3110 3111 3111 3112 3112 3113 3116 3119 3121 3124 3127 3130 3137 3142 3140 3133 3134 3136 3137 3140 3139 3141 3143 3143 3146 3151 3149 3149 3148
3110 3109 3108 3108 3107 3107 3107 3107 3107 3107 3107 3108 3108 3108 3108 3108 3108 3108 3109 3109 3109 3111 3113 3114 3117 3121 3124 3128 3132 3133 3130 3128 3132 3132 3133 3135 3135 3136 3139 3140 3140 3139 3146 3146 3145
3110 3109 3108 3107 3107 3106 3106 3106 3106 3106 3107 3107 3107 3107 3107 3107 3108 3107 3106 3106 3107 3108 3109 3111 3114 3117 3120 3124 3126 3128 3121 3126 3127 3128 3129 3129 3130 3133 3133 3134 3137 3134 3133 3139 3140
3110 3109 3108 3106 3106 3105 3105 3105 3105 3105 3105 3105 3106 3106 3106 3107 3114 3103 3104 3104 3105 3106 3107 3108 3111 3114 3117 3120 3122 3121 3120 3122 3123 3124 3124 3123 3125 3125 3128 3130 3129 3128 3131 3132 3134
3110 3109 3108 3106 3105 3105 3104 3103 3103 3103 3103 3104 3104 3104 3105 3107 3109 3103 3102 3103 3103 3105 3106 3109 3111 3113 3114 3116 3117 3115 3116 3116 3117 3117 3117 3119 3119 3120 3122 3124 3125 3121 3124 3127 3129
3110 3109 3108 3107 3106 3105 3104 3103 3102 3102 3101 3101 3102 3102 3104 3107 3101 3100 3100 3101 3101 3103 3104 3106 3110 3108 3109 3110 3111 3111 3111 3110 3111 3111 3112 3112 3113 3115 3113 3119 3118 3116 3117 3120 3124
3109 3109 3108 3107 3106 3105 3103 3102 3102 3101 3100 3100 3100 3100 3101 3105 3100 3098 3098 3099 3100 3100 3103 3104 3103 3105 3107 3107 3106 3106 3105 3104 3103 3104 3105 3108 3104 3102 3108 3111 3109 3110 3111 3113 3117
3109 3108 3108 3108 3106 3105 3103 3102 3101 3099 3098 3098 3098 3098 3098 3098 3097 3097 3098 3098 3098 3098 3099 3099 3100 3101 3102 3103 3102 3102 3101 3098 3097 3097 3099 3103 3092 3098 3100 3100 3102 3103 3105 3107 3107
3109 3108 3107 3107 3106 3105 3104 3102 3100 3099 3098 3097 3097 3097 3102 3095 3095 3097 3099 3100 3100 3097 3097 3096 3097 3099 3101 3100 3099 3097 3093 3091 3090 3091 3094 3095 3089 3093 3094 3093 3095 3095 3096 3097 3102
3108 3106 3105 3105 3105 3104 3103 3101 3100 3098 3097 3096 3096 3099 3098 3098 3097 3096 3098 3096 3098 3099 3098 3096 3097 3097 3097 3097 3092 3087 3086 3086 3086 3089 3087 3088 3086 3087 3088 3087 3088 3088 3087 3087 3093
3107 3105 3104 3104 3103 3103 3103 3101 3101 3099 3096 3097 3098 3095 3096 3095 3094 3094 3097 3096 3096 3097 3097 3097 3097 3094 3093 3092 3091 3089 3088 3086 3085 3086 3084 3084 3082 3082 3082 3082 3082 3081 3081 3082 3084
3107 3106 3104 3103 3102 3101 3101 3100 3099 3100 3097 3095 3093 3093 3092 3093 3095 3094 3096 3097 3097 3096 3096 3096 3092 3091 3090 3089 3089 3088 3086 3083 3082 3082 3081 3079 3076 3076 3075 3074 3074 3075 3076 3078 3080
3108 3106 3104 3102 3101 3101 3100 3099 3098 3097 3096 3096 3092 3093 3093 3092 3093 3095 3094 3094 3095 3094 3093 3091 3089 3087 3087 3087 3086 3084 3082 3080 3079 3077 3076 3075 3068 3067 3065 3062 3065 3067 3069 3072 3072
3109 3106 3105 3103 3103 3100 3100 3099 3098 3097 3097 3093 3091 3092 3091 3091 3092 3091 3091 3094 3092 3091 3090 3087 3086 3084 3084 3083 3083 3080 3079 3077 3075 3076 3071 3069 3056 3058 3059 3058 3058 3059 3061 3063 3062
3108 3105 3104 3102 3101 3101 3100 3098 3098 3099 3093 3093 3092 3088 3090 3091 3091 3089 3089 3089 3088 3087 3088 3084 3082 3082 3081 3080 3079 3077 3076 3075 3074 3071 3068 3064 3060 3050 3051 3049 3052 3054 3056 3058 3059
3107 3104 3102 3102 3100 3099 3098 3098 3098 3102 3093 3090 3089 3087 3088 3087 3087 3088 3086 3085 3085 3083 3081 3078 3078 3077 3076 3076 3075 3075 3073 3072 3069 3065 3058 3052 3052 3043 3043 3042 3047 3052 3054 3055 3056
3106 3103 3101 3099 3100 3097 3096 3097 3101 3094 3090 3089 3087 3087 3086 3085 3084 3084 3083 3082 3081 3079 3074 3071 3069 3069 3070 3070 3071 3071 3071 3064 3056 3047 3040 3037 3039 3038 3040 3043 3045 3047 3051 3052 3053
3105 3101 3099 3096 3095 3094 3094 3099 3097 3089 3088 3086 3085 3084 3082 3081 3079 3078 3077 3075 3075 3074 3070 3067 3062 3062 3061 3063 3065 3062 3063 3057 3048 3042 3037 3037 3036 3034 3036 3040 3043 3045 3047 3048 3048
3103 3100 3096 3094 3093 3092 3093 3095 3091 3089 3086 3085 3083 3079 3077 3076 3076 3075 3073 3071 3069 3068 3066 3063 3058 3059 3057 3059 3060 3058 3055 3056 3049 3047 3042 3036 3029 3029 3029 3035 3037 3041 3042 3043 3044
3101 3097 3094 3092 3091 3090 3092 3089 3088 3086 3083 3082 3080 3078 3075 3073 3072 3071 3068 3066 3065 3065 3063 3061 3055 3056 3054 3054 3053 3053 3053 3051 3053 3043 3033 3028 3024 3019 3018 3028 3032 3034 3037 3039 3039
3098 3096 3092 3090 3088 3087 3088 3087 3085 3083 3080 3079 3076 3074 3072 3071 3069 3066 3064 3063 3060 3059 3060 3058 3055 3051 3050 3048 3045 3046 3044 3045 3042 3038 3037 3030 3023 3020 3021 3026 3031 3030 3031 3034 3035
3096 3096 3092 3089 3088 3088 3086 3084 3079 3076 3075 3073 3071 3069 3068 3066 3063 3060 3059 3058 3058 3055 3054 3053 3049 3045 3041 3040 3040 3039 3036 3038 3037 3035 3031 3029 3020 3021 3022 3026 3028 3026 3026 3028 3028
3094 3091 3089 3087 3086 3085 3083 3080 3076 3073 3070 3068 3067 3066 3064 3062 3059 3054 3053 3053 3052 3051 3050 3048 3044 3039 3035 3034 3030 3030 3029 3028 3029 3028 3025 3027 3016 3019 3015 3020 3021 3020 3021 3022 3022
3093 3090 3088 3084 3082 3080 3078 3074 3072 3069 3064 3062 3061 3059 3058 3056 3054 3050 3048 3048 3046 3046 3043 3043 3042 3040 3036 3032 3031 3028 3027 3027 3027 3022 3019 3017 3015 3015 3015 3013 3013 3014 3014 3014 3014
3090 3088 3084 3084 3082 3077 3074 3071 3068 3067 3063 3060 3056 3055 3054 3050 3048 3045 3044 3042 3041 3041 3039 3040 3036 3035 3031 3028 3026 3023 3019 3019 3017 3017 3015 3013 3011 3011 3009 3006 3006 3007 3008 3007 3007
3086 3084 3081 3078 3075 3073 3070 3067 3065 3062 3060 3055 3052 3050 3049 3045 3044 3039 3038 3037 3035 3035 3034 3034 3029 3029 3023 3022 3019 3014 3011 3010 3008 3007 3005 3005 3001 3004 3003 3001 3000 2999 2998 2998 3000
3080 3079 3075 3074 3071 3069 3067 3063 3059 3056 3052 3048 3045 3042 3041 3039 3035 3030 3028 3026 3026 3027 3028 3028 3026 3025 3019 3017 3013 3008 3003 3001 3000 2999 2998 2996 2996 2996 2995 2994 2992 2988 2987 2991 2991